Miscellaneous Local Product
Issued by NWS North Platte, NE

Home | Current Version | Previous Version | Text Only | Print | Product List | Glossary On
Versions: 1 2 3 4 5 6 7 8 9 10 11 12 13 14 15 16 17 18 19 20 21 22 23 24 25 26 27 28 29 30 31 32 33 34 35 36 37 38 39 40 41 42 43 44 45 46 47 48 49 50
000
AXUS43 KLBF 231810
MISLBF


WESTERN AND NORTH CENTRAL NEBRASKA HOURLY WEATHER ROUNDUP
NATIONAL WEATHER SERVICE NORTH PLATTE NE
100 PM CDT MON MAY 23 2022

NOTE: "FAIR" INDICATES FEW OR NO CLOUDS BELOW 12,000 FEET WITH NO
SIGNIFICANT WEATHER AND/OR OBSTRUCTIONS TO VISIBILITY.

NOTE: STATIONS NOT REPORTING SKY/WEATHER AND PRESSURE ARE
PROVIDED BY RAWS AND APRS NETWORKS AND ARE NOT UNDER NATIONAL
WEATHER SERVICE QUALITY CONTROL.

...OBSERVATIONS IN AND NEAR THE EASTERN PANHANDLE OF NEBRASKA...

CITY           SKY/WX    TMP DP  RH WIND       PRES   REMARKS
PINE RIDGE     CLOUDY    45  42  89 SE13G22   30.12F
GORDON         LGT RAIN  43  40  89 SE13G18   30.14S
CHADRON        CLOUDY    48  41  76 S16       30.09S
ALLIANCE       LGT RAIN  43  41  93 SE15G24   30.09S FOG
SIDNEY         LGT RAIN  45  42  89 S21G26    30.05F FOG
CRESCENT LAKE    N/A     43  42  95 S9G16       N/A
$$

...OBSERVATIONS IN NORTHERN NEBRASKA AND FAR SOUTHERN SOUTH DAKOTA...

CITY           SKY/WX    TMP DP  RH WIND       PRES   REMARKS
WINNER         CLOUDY    59  41  51 SW15      30.18F
VALENTINE      CLOUDY    55  40  56 S13       30.18F
AINSWORTH      CLOUDY    53  42  66 S14       30.20F
O`NEILL        DRIZZLE   55  39  54 S16       30.23F
THEDFORD       RAIN      45  43  93 SE12      30.19F
BROKEN BOW     LGT RAIN  50  43  77 S7        30.19F
ORD            CLOUDY    56  38  50 S7        30.17F
ALBION         PTSUNNY   62  37  39 SE12G21   30.19F
EWING            N/A     60  39  46 S5G12       N/A
CHAMBERS         N/A     55  41  59 CALM        N/A
BUTTE            N/A     58  39  49 N12G26      N/A
SPRINGVIEW       N/A     54  44  67 W5G12       N/A
VALENTINE NWR    N/A     48  42  81 S12G22      N/A
HALSEY           N/A     45  43  94 S6G15       N/A
$$

...OBSERVATIONS IN SOUTHWEST NEBRASKA AND FAR NORTHEAST COLORADO...

CITY           SKY/WX    TMP DP  RH WIND       PRES   REMARKS
WRAY           PTSUNNY   57  36  44 S15G26    30.05F
HOLYOKE        CLOUDY    52  41  66 SE13G20   30.10S
IMPERIAL       CLOUDY    52  41  66 SE21G30   30.09F
OGALLALA       LGT RAIN  47  46  96 SE12      30.12F
NORTH PLATTE   LGT RAIN  48  44  86 SE13      30.17S
MCCOOK         CLOUDY    52  41  66 SE17G28   30.13S
LEXINGTON      LGT RAIN  49  45  85 S7        30.18F
CALLAWAY         N/A     48  45  90 SE13        N/A
STAPLETON        N/A     45  44  97 CALM        N/A
$$

...OBSERVATIONS IN CENTRAL LINCOLN COUNTY AREA...

CITY           SKY/WX    TMP DP  RH WIND       PRES   REMARKS
N.P. AIRPORT   LGT RAIN  48  44  86 SE13      30.17S
N.P. HILLCREST   N/A     45  44  97 E14         N/A
N.P. DOWNTOWN    N/A     46  44  93 CALM        N/A
N.P. SOUTHEAST   N/A     44  43  96 E6          N/A
$$

...OBSERVATIONS ACROSS THE ROCKIES AND WESTERN HIGH PLAINS...

CITY           SKY/WX    TMP DP  RH WIND       PRES   REMARKS
SCOTTSBLUFF    LGT RAIN  44  40  85 SE16G22   30.08S
KIMBALL        LGT RAIN  42  39  90 S9        30.05F
CHEYENNE       CLOUDY    42  36  79 NW16G30   30.04S
DENVER         PTSUNNY   54  36  50 N10       30.03R
STEAMBOAT      CLOUDY    41  29  61 SW3       30.12S
COPPER MTN     CLOUDY    34  21  60 W8        30.18S
LEADVILLE      PTSUNNY   43  23  45 NW15G28   30.08S
ASPEN          MOSUNNY   51  24  34 N14G20    30.05F
GUNNISON       CLOUDY    55  16  21 SW17      30.03F
TELLURIDE      CLOUDY    50  18  27 SW8G16    30.13S
LARAMIE        FLURRIES  35  34  96 W8        30.09R
CASPER         CLOUDY    52  36  54 E12       30.07F
GILLETTE       MOSUNNY   55  37  50 CALM      30.06F
SHERIDAN       PTSUNNY   59  35  40 N9        30.08F
JACKSON        MOSUNNY   50  21  32 VRB3      30.13F
$$

...OBSERVATIONS ACROSS THE NORTHERN PLAINS...

CITY           SKY/WX    TMP DP  RH WIND       PRES   REMARKS
RAPID CITY     CLOUDY    51  41  68 S18       30.10R
PIERRE         CLOUDY    62  40  44 SW17G33   30.14F
SIOUX FALLS    PTSUNNY   67  37  33 SW12G22   30.21F
ABERDEEN       MOSUNNY   67  41  38 S8G23     30.16F
WILLISTON      FAIR      59  36  41 CALM      30.07F
DICKINSON      MOSUNNY   60  38  43 VRB3      30.05F
BISMARCK       MOSUNNY   65  41  41 S8G20     30.09F
FARGO          SUNNY     63  36  36 SE12      30.19F
GRAND FORKS    PTSUNNY   64  34  32 S12G23    30.17F
$$

...OBSERVATIONS ACROSS THE CENTRAL AND SOUTHERN PLAINS...

CITY           SKY/WX    TMP DP  RH WIND       PRES   REMARKS
GRAND ISLAND   CLOUDY    63  34  33 SE15      30.18F
LINCOLN        PTSUNNY   64  40  41 SE12      30.21F
OMAHA          CLOUDY    64  41  42 SE15      30.23S
DES MOINES     PTSUNNY   62  35  36 E12G22    30.27F
KANSAS CITY    MOSUNNY   66  41  40 E13       30.21F
WICHITA        CLOUDY    60  44  55 E12       30.13F
DODGE CITY     CLOUDY    54  38  54 E13       30.12F
OKLAHOMA CITY  CLOUDY    56  55  97 E10       30.09F
DALLAS         PTSUNNY   74  63  68 SE3       30.05F
AMARILLO       CLOUDY    63  47  55 SE16G26   30.02F
$$



USA.gov is the U.S. government's official web portal to all federal, state and local government web resources and services.